This demonstration page uses our WeatherBlox Daily Observations layout. Learn more.

Left ArrowRight Arrow

38.89511, -77.03637

Hourly Observations for July 23, 2018

Temp ( °F °C ) Dew Point ( °F °C ) Humidity (%) Winds ( mph kmh ) Pressure ( in mb ) Visibility ( mi km ) Precip ( " mm )
12:00 am 00:00 Cloudy with Strong Thunderstorms 75 23.9 72 22.2 90 90 NE 6 9 29.88 1012 3 4 0.05 1.27
12:06 am 00:06 Cloudy with Thunderstorms 75 23.9 72 22.2 90 90 ENE 6 9 29.88 1012 4 6 0.13 3.30
12:22 am 00:22 Cloudy with Light Rain 75 23.9 72 22.2 90 90 NE 6 9 29.88 1012 10 16 0.16 4.06
12:35 am 00:35 Cloudy with Thunderstorms 75 23.9 72 22.2 90 90 E 6 9 29.88 1012 10 16 0.16 4.06
12:52 am 00:52 Mostly Cloudy with Thunderstorms 77 25 72 22.2 85 85 S 3 6 29.87 1012 10 16 0.16 4.06
1:13 am 01:13 Cloudy 76 24.4 70 21.1 82 82 SSE 6 9 29.88 1012 10 16 0.00 0.00
1:45 am 01:45 Mostly Cloudy 76 24.4 71 21.7 85 85 SSW 3 6 29.88 1012 10 16 0.00 0.00
1:52 am 01:52 Mostly Cloudy 77 25 71 21.7 82 82 Calm 29.86 1011 10 16 0.00 0.00
2:01 am 02:01 Cloudy 76 24.4 72 22.2 88 88 Calm 29.88 1012 10 16 0.00 0.00
2:52 am 02:52 Cloudy 77 25 73 22.8 88 88 Calm 29.85 1011 10 16 0.00 0.00
3:08 am 03:08 Mostly Cloudy 77 25 73 22.8 88 88 SE 5 7 29.85 1011 10 16 0.00 0.00
3:52 am 03:52 Cloudy 78 25.6 74 23.3 87 87 SSE 8 13 29.86 1011 10 16 0.00 0.00
4:52 am 04:52 Cloudy 78 25.6 74 23.3 87 87 SE 7 11 29.87 1012 10 16 0.00 0.00
5:47 am 05:47 Cloudy with Nearby Thunderstorms 79 26 73 23 84 84 SE 7 11 29.88 1012 10 16 0.00 0.00
5:52 am 05:52 Cloudy with Nearby Thunderstorms 78 25.6 74 23.3 87 87 SE 6 9 29.89 1012 10 16 0.00 0.00
5:55 am 05:55 Cloudy with Nearby Thunderstorms 78 25.6 74 23.3 87 87 SE 9 15 29.91 1013 10 16 0.00 0.00
6:39 am 06:39 Mostly Cloudy 79 26.1 73 22.8 82 82 SSE 13 20 29.91 1013 10 16 0.00 0.03
6:52 am 06:52 Mostly Cloudy 78 25.6 73 22.8 85 85 SSE 12 19 29.92 1013 10 16 0.00 0.03
7:19 am 07:19 Cloudy with Rain 77 25 73 22.8 88 88 SE 10 17 29.94 1014 4 6 0.02 0.51
7:52 am 07:52 Cloudy with Light Rain 76 24.4 72 22.2 88 88 SE 6 9 29.92 1013 6 10 0.06 1.52
8:52 am 08:52 Cloudy 77 25 72 22.2 85 85 ESE 6 9 29.96 1014 10 16 0.00 0.03
9:52 am 09:52 Cloudy 79 26.1 72 22.2 79 79 SE 9 15 29.96 1015 10 16 0.00 0.03
10:52 am 10:52 Cloudy 80 26.7 73 22.8 79 79 SE 8 13 29.97 1015 10 16 0.00 0.03
11:38 am 11:38 Cloudy 81 27.2 73 22.8 77 77 SSE 13 20 29.97 1015 10 16 0.00 0.00
11:52 am 11:52 Cloudy 81 27.2 73 22.8 77 77 SSE 12 19 29.98 1015 10 16 0.00 0.00
12:52 pm 12:52 Cloudy 82 27.8 72 22.2 72 72 SE 10 17 29.97 1015 10 16 0.00 0.03
1:06 pm 13:06 Cloudy 82 27.8 71 21.7 69 69 SSE 15 24 29.97 1015 10 16 0.00 0.00
1:52 pm 13:52 Cloudy 83 28.3 71 21.7 67 67 SE 15 24 29.97 1015 10 16 0.00 0.00
2:52 pm 14:52 Mostly Cloudy 84 28.9 71 21.7 65 65 SSE 20 31 29.96 1015 10 16 0.00 0.03
3:52 pm 15:52 Mostly Cloudy 84 28.9 72 22.2 67 67 S 17 28 29.96 1015 10 16 0.00 0.00
4:52 pm 16:52 Mostly Cloudy 83 28.3 71 21.7 67 67 S 14 22 29.96 1014 10 16 0.00 0.00
5:52 pm 17:52 Mostly Cloudy with Light Rain 83 28.3 71 21.7 67 67 SSE 12 19 29.96 1015 10 16 0.00 0.03
6:52 pm 18:52 Mostly Cloudy 82 27.8 72 22.2 72 72 SSE 9 15 29.97 1015 10 16 0.00 0.03
7:52 pm 19:52 Cloudy 81 27.2 72 22.2 74 74 SSE 8 13 30.00 1016 10 16 0.00 0.03
8:33 pm 20:33 Mostly Cloudy 80 26.7 72 22.2 76 76 SE 9 15 30.00 1016 10 16 0.00 0.00
8:41 pm 20:41 Cloudy 80 26.7 72 22.2 76 76 SE 12 19 30.00 1016 10 16 0.00 0.00
8:52 pm 20:52 Cloudy 80 26.7 72 22.2 76 76 SSE 10 17 30.01 1016 10 16 0.00 0.00
9:28 pm 21:28 Mostly Cloudy 78 25.6 73 22.8 85 85 SSE 9 15 30.03 1017 10 16 0.00 0.03
9:36 pm 21:36 Mostly Cloudy 78 25.6 73 22.8 85 85 SSE 9 15 30.03 1017 10 16 0.00 0.03
9:52 pm 21:52 Mostly Cloudy 78 25.6 73 22.8 85 85 SSE 10 17 30.03 1017 10 16 0.00 0.03
10:52 pm 22:52 Cloudy 77 25 73 22.8 88 88 S 6 9 30.04 1017 10 16 0.00 0.00
11:20 pm 23:20 Cloudy 78 25.6 74 23.3 87 87 S 5 7 30.03 1017 10 16 0.00 0.00
11:39 pm 23:39 Cloudy 78 25.6 74 23.3 87 87 SSE 7 11 30.03 1017 10 16 0.00 0.00
11:50 pm 23:50 Cloudy 79 26 73 23 84 84 SSE 10 17 30.03 1017 10 16 0.00 0.00
11:52 pm 23:52 Cloudy 78 25.6 73 22.8 85 85 SSE 9 15 30.04 1017 10 16 0.00 0.00

Powered by AerisWeather